Location: Foligno
(42.9600°N, 12.7050°E)
Time: 04:39:08
(UTC+01:00)

ISS - Pass Details

Date: 24 February 2020
Orbit: 415 x 423 km, 51.6° (Epoch: 27 February)

Event Time Altitude Azimuth Distance (km) Brightness Sun altitude
Exits shadow 05:09:44 28° 178° (S) 809 -2.4 -19.9°
Maximum altitude 05:10:46 36° 139° (SE) 681 -2.4 -19.7°
Drops below altitude 10° 05:13:54 10° 71° (ENE) 1,503 0.2 -19.1°
Sets 05:16:06 0° 62° (ENE) 2,372 1.3 -18.7°
